sat.trackr.live / text

‹ back to catalog

ONEWEB-0694

NORAD 56722 · 2023-068N

PAYLOAD ACTIVE UNKNOWN

§ Identity

Operator
Country
UK
Launch date
2023-05-20
Launch site
AFWTR
Launch vehicle
Mass (kg)
RCS (m²)

Purposes: comms

External: N2YO · Heavens-Above · Gunter

§ Orbital elements

Epoch: 2026-05-25T04:24:01.185120Z

Period
109.37 min
Inclination
87.9117°
Eccentricity
0.0002262
Mean motion
13.16593942 rev/d
Perigee alt
1,196.0 km
Apogee alt
1,199.5 km
Semi-major
7,575.9 km
B*
2.7057e-5
RAAN
233.3223°
Arg perigee
111.1166°
Mean anomaly
249.0207°
Rev number
14,874

§ Raw data

ONEWEB-06941 56722U 23068N   26145.18334705  .00000023  00000+0  27057-4 0  99992 56722  87.9117 233.3223 0002262 111.1166 249.0207 13.16593942148745

JSON: /api/v1/satellites/56722 · /tle

For live sub-satellite position, see the globe view (requires WebGL).

§ Visibility from observer

Set your observer location to see the next 7 days of passes ≥ 10°. The values pass through the URL so the page stays shareable.

No JS? Fill the form by hand. The geolocation button needs JavaScript.